Dewpoint
57 58 59 61 60 59 59 58 57 56 55 55 55 54 53 50 50 50 51 50 48 48 47 47 47 48 46 37 33 32 55 55 48 31 26 30 30 25 18 17 20 21 21 23 25 25 24
54 55 57 58 60 60 59 58 57 56 55 55 54 54 52 50 50 50 49 48 48 47 47 46 47 47 43 23 17 28 47 49 38 32 33 29 31 31 27 25 17 17 16 17 18 18 17
54 54 54 56 58 59 59 58 57 57 55 55 54 53 52 51 50 48 47 47 48 47 46 47 47 44 41 31 28 29 42 37 37 40 35 35 35 32 26 22 26 26 23 24 23 21 18
53 54 55 55 56 58 58 58 57 57 56 55 54 53 52 51 49 47 47 47 47 47 46 47 48 46 37 39 39 37 31 32 31 30 36 29 24 23 22 23 21 21 23 21 22 21 20
55 55 56 55 56 57 58 58 57 57 56 55 53 52 51 50 48 47 48 46 46 46 46 47 49 44 36 44 43 42 35 31 29 25 23 22 22 18 21 19 19 20 19 20 20 21 19
55 56 57 55 56 56 57 58 57 57 55 54 53 52 51 49 47 46 46 46 44 46 45 47 46 39 40 33 36 33 37 32 25 27 26 22 19 16 18 17 17 17 17 21 19 18 18
56 57 58 57 57 57 58 58 57 55 54 53 52 51 48 47 47 46 46 40 41 41 41 38 37 36 32 34 26 23 28 28 28 26 21 21 17 16 14 17 18 19 19 17 17 18 17
54 56 58 57 58 57 57 58 57 54 53 53 51 49 47 47 46 46 44 35 34 31 29 39 40 37 34 37 37 27 22 23 22 25 25 23 19 20 21 19 18 17 16 16 17 18 18
52 55 57 58 58 57 57 57 55 53 52 51 49 48 47 46 44 42 39 33 36 34 22 22 35 38 37 40 37 29 21 19 19 19 25 22 23 25 22 21 19 19 17 17 18 19 20
50 52 55 58 57 57 57 55 53 52 51 49 48 48 45 44 37 38 35 31 35 36 8 13 23 32 37 36 29 28 23 19 19 18 24 24 24 23 23 21 21 19 21 21 21 19 17
48 49 50 52 54 54 53 53 51 50 49 49 46 44 44 40 38 37 35 34 42 40 7 16 24 29 35 28 29 29 20 22 16 18 20 19 21 22 21 21 22 21 24 22 23 20 22
48 47 48 49 50 50 50 50 49 48 46 45 44 43 42 39 39 37 38 39 40 30 11 20 26 26 27 28 26 26 24 25 24 20 21 19 20 19 18 19 20 22 24 24 24 23 19
48 47 48 48 48 48 48 47 47 46 45 44 43 42 39 37 37 39 40 39 28 22 17 24 25 28 28 27 27 25 24 23 22 20 20 21 20 20 21 19 21 19 19 17 16 18 17
48 48 47 47 47 46 46 46 45 44 43 41 41 40 39 36 37 40 39 35 24 13 11 11 21 25 26 10 12 15 22 22 13 25 20 16 15 22 26 25 22 20 20 19 15 18 13
47 47 47 46 46 45 45 44 42 43 42 40 39 39 37 41 39 40 36 27 21 14 9 9 8 12 11 9 8 11 11 14 14 12 21 17 20 19 25 20 25 23 21 22 21 21 20
45 45 45 45 45 45 44 42 41 39 39 41 38 39 39 42 40 40 34 28 16 16 16 17 10 12 7 8 9 9 12 16 14 14 18 18 10 23 17 24 23 20 26 22 26 22 18
45 44 44 44 44 44 42 40 40 40 40 41 37 34 38 40 41 38 28 27 15 17 17 16 12 10 12 11 13 12 15 20 18 18 24 23 19 18 12 19 17 16 20 27 30 27 22
44 44 44 44 43 44 41 41 40 39 39 37 35 29 36 39 34 34 29 22 25 18 21 18 22 20 18 18 15 16 16 20 24 24 20 25 23 21 14 18 20 20 30 30 26 24 25
44 44 44 44 43 41 41 40 40 39 38 36 32 28 34 38 28 26 21 21 23 20 21 20 19 22 22 19 16 18 19 25 24 24 21 20 19 13 3 14 21 21 20 21 24 28 24
43 43 42 40 41 41 40 40 39 39 39 35 33 23 26 33 32 27 23 21 20 24 22 24 24 24 21 20 19 17 20 24 26 28 32 26 21 16 11 12 20 20 20 21 22 19 22
41 41 41 41 42 41 40 39 39 38 38 37 33 27 28 25 25 25 24 24 21 21 23 24 24 24 23 20 18 19 21 22 23 25 27 24 19 21 21 21 18 16 17 17 19 19 19
42 42 43 42 41 39 39 38 38 38 40 36 31 28 29 25 25 22 23 22 21 19 23 21 22 21 19 19 18 18 21 20 19 22 22 25 19 19 16 13 12 15 18 19 19 19 19
40 41 42 41 40 38 38 38 39 40 40 33 33 32 29 25 22 20 20 21 20 21 22 20 20 18 19 22 23 22 22 22 20 22 21 21 19 18 11 17 19 15 21 28 20 19 23
41 41 42 41 40 39 39 38 40 41 38 35 34 33 28 22 20 21 21 20 19 19 18 18 19 20 24 24 25 24 23 22 23 21 22 21 19 18 16 17 11 19 31 32 30 32 34
42 41 41 40 39 39 39 39 40 42 41 36 36 32 29 24 21 19 20 20 19 20 17 25 25 25 25 26 23 21 20 20 22 24 23 21 21 16 13 16 17 20 30 29 28 29 33
43 41 41 39 39 40 40 40 41 41 41 36 35 37 32 26 23 26 21 19 19 19 24 25 28 28 27 24 21 19 15 17 19 24 28 24 23 21 23 11 10 22 28 30 34 24 30
43 43 41 40 41 40 40 40 40 42 41 36 34 36 30 26 29 27 23 23 25 23 23 24 25 25 26 17 12 12 18 23 21 18 25 24 24 19 20 18 21 27 30 33 23 23 28
43 43 43 42 41 41 40 40 40 41 42 35 34 36 31 28 29 30 30 25 25 25 20 22 21 22 22 19 18 13 11 22 21 22 26 25 22 22 23 21 18 29 28 23 29 30 28
42 43 43 43 43 42 41 40 40 41 43 38 34 38 35 30 29 31 30 30 27 26 25 26 22 26 24 19 19 20 19 21 20 19 30 23 26 23 23 22 31 31 29 31 32 30 28
Lifted_Index
10 9 7 6 5 5 5 4 4 3 3 3 3 3 4 6 8 10 12 13 14 14 15 15 15 15 13 9 9 12 11 10 12 13 13 13 13 12 11 11 12 12 11 11 11 11 10
11 10 9 7 6 5 5 5 4 4 3 3 3 4 4 6 8 11 12 13 14 15 15 15 15 15 12 9 10 12 12 11 12 12 13 13 12 12 11 11 11 11 11 11 10 10 10
11 11 10 8 7 6 5 5 5 5 4 4 4 5 6 7 9 11 13 13 14 15 15 15 15 14 10 9 12 13 12 12 12 12 12 12 12 12 12 11 11 10 10 9 9 9 9
10 10 9 9 7 6 5 5 6 6 5 5 5 7 8 9 10 11 13 14 14 15 15 14 14 12 9 10 13 13 13 12 12 12 12 12 12 12 11 11 10 9 8 7 7 8 8
9 9 8 8 7 6 5 5 6 6 6 6 6 8 10 11 11 12 13 14 15 14 14 13 13 11 9 10 11 11 12 12 12 12 12 13 12 11 10 9 8 7 7 6 7 7 8
8 7 7 7 6 6 5 5 5 5 5 5 6 8 10 10 10 12 13 13 13 12 12 11 10 10 10 10 10 10 10 11 11 11 12 12 12 10 9 8 7 6 6 6 6 7 7
7 6 5 5 5 5 4 4 4 4 4 4 5 7 8 9 10 11 12 11 10 9 9 8 8 9 10 10 10 9 9 9 10 10 10 10 10 8 7 8 8 7 6 6 6 6 6
6 5 4 3 3 3 2 2 2 1 2 2 4 6 7 8 10 11 10 8 8 8 7 7 8 9 9 9 9 9 9 9 9 9 9 9 7 7 7 8 8 7 6 5 5 5 5
5 4 2 1 0 0 -0 -0 0 0 1 3 4 6 7 8 9 9 8 8 9 9 7 7 9 9 9 8 8 9 9 9 9 9 8 7 7 6 7 6 6 6 5 5 5 5 4
5 3 1 -1 -1 -1 -1 -0 0 1 3 5 6 7 8 9 9 8 8 9 10 8 5 6 8 9 8 8 8 8 8 8 8 8 7 7 6 6 6 5 5 5 5 5 5 4 4
5 4 2 -0 -0 0 1 2 3 4 6 7 8 9 9 10 10 9 9 9 8 6 4 5 7 8 8 7 7 7 7 7 7 7 7 6 5 5 5 5 5 5 5 5 5 4 3
5 4 3 2 2 3 4 5 6 7 8 9 9 10 10 11 10 10 9 8 7 4 3 4 6 7 6 6 6 5 6 6 6 6 6 5 5 5 5 5 5 4 4 4 4 3 2
6 5 5 4 5 6 7 7 8 8 9 9 10 10 11 11 10 9 9 7 5 4 4 4 4 5 5 5 5 4 4 5 5 5 5 4 4 4 4 4 4 3 3 2 2 1 1
6 6 6 6 6 7 7 8 8 8 9 10 10 11 11 11 9 9 8 7 5 5 5 4 3 3 4 4 4 4 3 4 5 4 4 3 3 3 4 3 3 2 2 2 1 1 1
7 7 7 7 7 8 8 8 8 9 9 10 10 11 11 10 9 8 7 6 6 6 5 4 3 3 4 4 4 3 3 4 5 4 4 3 3 3 4 3 3 2 2 1 1 1 1
8 8 8 8 8 9 9 9 9 9 10 10 10 10 10 10 9 8 7 6 6 5 5 3 3 3 4 4 3 3 3 5 5 5 4 4 3 4 4 4 3 2 1 1 1 1 0
8 8 8 9 9 9 9 10 10 10 11 10 10 9 9 9 8 7 6 6 5 5 4 3 3 3 3 3 2 3 3 4 5 5 5 5 4 4 5 4 4 3 2 1 1 0 -0
8 8 8 8 9 9 10 10 11 11 11 10 9 9 10 9 7 6 5 5 5 4 3 3 3 3 3 3 2 2 3 4 5 5 5 5 5 4 5 5 5 4 3 3 2 1 1
8 8 8 9 9 9 10 10 11 11 10 9 9 9 9 8 6 5 4 4 4 3 3 3 3 3 3 3 3 3 3 4 5 5 5 6 5 4 4 5 5 5 4 4 3 2 1
8 8 8 9 9 10 10 10 10 10 10 9 8 8 8 6 5 4 4 3 3 3 3 4 4 4 3 3 3 3 4 5 6 6 6 6 6 5 4 5 5 5 5 5 4 3 3
8 8 8 9 9 10 10 10 10 10 9 8 7 7 6 5 4 4 3 3 3 3 3 4 4 4 4 3 3 4 5 6 6 7 7 6 6 5 5 5 5 5 5 5 4 4 4
7 7 8 8 9 10 10 10 10 9 8 6 5 5 4 4 3 3 3 3 3 3 3 4 4 4 5 4 5 5 6 7 7 7 7 6 5 4 4 4 4 4 4 4 3 4 4
7 7 8 8 9 10 10 9 9 8 7 6 5 4 3 3 3 3 2 3 3 4 4 4 5 6 6 6 7 7 7 7 7 7 6 6 5 3 3 3 2 2 2 2 2 2 3
7 7 8 8 9 9 9 9 8 7 6 5 4 3 3 2 3 3 3 3 4 4 5 5 6 6 7 7 7 7 7 7 6 5 5 4 3 3 2 2 1 1 1 1 1 1 1
6 7 7 8 9 9 9 8 7 7 6 5 4 3 3 3 3 3 3 4 5 5 6 6 6 7 7 7 6 6 5 5 4 4 3 2 2 2 1 1 1 1 1 1 1 0 0
6 6 7 8 8 8 8 7 7 6 6 5 4 3 3 3 3 4 4 5 5 6 6 6 6 6 6 6 5 4 4 3 3 2 2 2 1 1 1 1 1 1 1 1 1 1 1
5 6 6 7 7 8 7 7 6 6 6 5 4 3 3 3 4 4 5 5 5 6 6 6 6 6 6 6 5 4 3 2 2 2 2 1 1 1 1 1 1 2 2 2 1 2 2
5 5 6 6 7 7 7 7 6 6 6 5 4 4 4 4 4 5 5 6 6 6 6 6 6 6 6 6 5 4 2 1 1 2 1 1 1 1 1 1 2 2 3 3 3 4 4
5 5 6 6 6 6 6 7 6 6 5 5 4 4 4 4 5 5 6 6 6 6 6 7 6 6 6 6 5 4 2 1 1 2 2 1 1 1 1 1 2 4 4 4 5 5 4